Location: Coleto Creek Park and Reservoir
(28.7196°N, 97.1740°W)
Time: 05:12:03
(UTC-06:00)

Hubble Space Telescope - Visible Passes

Search period start: 02 March 2015 00:00
Search period end: 12 March 2015 01:00
Orbit: 543 x 548 km, 28.5° (Epoch: 01 March)

Date Brightness Start Highest point End Pass type
(mag) Time Alt. Az. Time Alt. Az. Time Alt. Az.
02 Mar 3.3 04:27:42 20° E 04:27:42 20° E 04:29:06 10° E visible
02 Mar 0.8 06:03:11 17° W 06:06:17 75° S 06:10:26 10° ESE visible
03 Mar 3.6 04:19:58 17° E 04:19:58 17° E 04:20:56 10° E visible
03 Mar 0.9 05:55:27 21° W 05:58:06 67° S 06:02:14 10° ESE visible
04 Mar 3.9 04:12:16 13° E 04:12:16 13° E 04:12:46 10° E visible
04 Mar 1.0 05:47:45 26° W 05:49:54 57° SSW 05:53:59 10° ESE visible
05 Mar 4.1 04:04:35 10° E 04:04:35 10° E 04:04:35 10° E visible
05 Mar 1.2 05:40:04 30° WSW 05:41:41 47° SSW 05:45:41 10° ESE visible
06 Mar 1.5 05:32:27 33° SW 05:33:26 38° SSW 05:37:19 10° SE visible
07 Mar 1.8 05:24:52 30° SSW 05:25:11 30° SSW 05:28:51 10° SE visible
08 Mar 2.3 06:17:21 24° SSW 06:17:21 24° SSW 06:20:16 10° SSE visible
09 Mar 2.8 06:09:54 16° S 06:09:54 16° S 06:11:32 10° SSE visible
10 Mar 3.4 06:02:30 10° S 06:02:30 10° S 06:02:31 10° S visible
11 Mar 3.2 21:15:13 10° SSW 21:15:57 13° S 21:15:57 13° S visible
